When you browse on this site, cookies collect data to enhance your experience and personalize the content and advertising you see.
Visit our Privacy Policy to learn more. By continuing to use the site, you agree to this use of cookies and data.
  • In Latvia
  • List of Countries
  • For 7 days
  • Water Temperature
  • Weather Map
  • Weather Widgets
  • user-avatar
    Login

    Hourly Weather Fier

    Today, 1 June, Monday

    Time Temperature Precipitation Wind Pressure Humidity
    00:00 +15°C° 0 mm 1 mps 759 mmHg 85%
    01:00 +14°C° 0 mm 1 mps 759 mmHg 85%
    02:00 +14°C° 0.6 mm 2 mps 758 mmHg 85%
    03:00 +14°C° 0.6 mm 2 mps 758 mmHg 86%
    04:00 +14°C° 0.6 mm 2 mps 758 mmHg 87%
    05:00 +15°C° 0.3 mm 2 mps 758 mmHg 82%
    06:00 +16°C° 0.3 mm 1 mps 758 mmHg 77%
    07:00 +18°C° 0 mm 1 mps 758 mmHg 71%
    08:00 +18°C° 0 mm 2 mps 758 mmHg 65%
    09:00 +19°C° 0 mm 3 mps 758 mmHg 60%
    10:00 +20°C° 0 mm 3 mps 758 mmHg 55%
    11:00 +21°C° 0.1 mm 4 mps 758 mmHg 55%
    12:00 +21°C° 0.1 mm 4 mps 758 mmHg 54%
    13:00 +22°C° 0.1 mm 4 mps 757 mmHg 54%
    14:00 +21°C° 0.1 mm 4 mps 757 mmHg 55%
    15:00 +21°C° 0.1 mm 5 mps 757 mmHg 57%
    16:00 +21°C° 0.1 mm 5 mps 757 mmHg 59%
    17:00 +20°C° 0 mm 4 mps 757 mmHg 64%
    18:00 +18°C° 0 mm 4 mps 757 mmHg 69%
    19:00 +17°C° 0 mm 3 mps 757 mmHg 74%
    20:00 +17°C° 0 mm 2 mps 757 mmHg 76%
    21:00 +16°C° 0 mm 2 mps 758 mmHg 79%
    22:00 +15°C° 0 mm 1 mps 758 mmHg 81%
    23:00 +15°C° 0 mm 1 mps 758 mmHg 81%

    Tomorrow, 2 June, Tuesday

    Time Temperature Precipitation Wind Pressure Humidity
    00:00 +15°C° 0 mm 1 mps 757 mmHg 82%
    01:00 +14°C° 0 mm 1 mps 757 mmHg 82%
    02:00 +14°C° 0 mm 1 mps 757 mmHg 82%
    03:00 +14°C° 0 mm 2 mps 757 mmHg 81%
    04:00 +14°C° 0 mm 2 mps 757 mmHg 81%
    05:00 +16°C° 0 mm 2 mps 757 mmHg 75%
    06:00 +18°C° 0 mm 1 mps 757 mmHg 70%
    07:00 +20°C° 0 mm 1 mps 757 mmHg 64%
    08:00 +20°C° 0 mm 2 mps 757 mmHg 60%
    09:00 +21°C° 0 mm 2 mps 757 mmHg 56%
    10:00 +24°C° 0 mm 2 mps 757 mmHg 52%
    11:00 +24°C° 0 mm 3 mps 756 mmHg 51%
    12:00 +23°C° 0 mm 4 mps 756 mmHg 51%
    13:00 +25°C° 0 mm 5 mps 756 mmHg 50%
    14:00 +23°C° 0 mm 4 mps 756 mmHg 52%
    15:00 +23°C° 0 mm 4 mps 755 mmHg 53%
    16:00 +22°C° 0 mm 4 mps 755 mmHg 55%
    17:00 +21°C° 0 mm 3 mps 755 mmHg 62%
    18:00 +19°C° 0 mm 2 mps 755 mmHg 69%
    19:00 +19°C° 0 mm 1 mps 755 mmHg 76%
    20:00 +18°C° 0 mm 1 mps 755 mmHg 78%
    21:00 +18°C° 0 mm 1 mps 756 mmHg 79%
    22:00 +16°C° 0 mm 1 mps 756 mmHg 81%
    23:00 +16°C° 0 mm 1 mps 756 mmHg 80%

    Day after tomorrow, 3 June, Wednesday

    Time Temperature Precipitation Wind Pressure Humidity
    00:00 +16°C° 0 mm 1 mps 756 mmHg 79%
    01:00 +15°C° 0 mm 1 mps 755 mmHg 78%
    02:00 +15°C° 0 mm 2 mps 755 mmHg 76%
    03:00 +15°C° 0 mm 2 mps 755 mmHg 75%
    04:00 +15°C° 0 mm 2 mps 755 mmHg 73%
    05:00 +16°C° 0 mm 2 mps 755 mmHg 68%
    06:00 +18°C° 0 mm 2 mps 755 mmHg 64%
    07:00 +21°C° 0 mm 1 mps 755 mmHg 59%
    08:00 +21°C° 0 mm 2 mps 755 mmHg 54%
    09:00 +23°C° 0 mm 2 mps 755 mmHg 50%
    10:00 +24°C° 0 mm 3 mps 756 mmHg 46%
    11:00 +24°C° 0 mm 3 mps 755 mmHg 46%
    12:00 +25°C° 0 mm 4 mps 755 mmHg 46%
    13:00 +25°C° 0 mm 5 mps 755 mmHg 45%
    14:00 +23°C° 0 mm 4 mps 755 mmHg 46%
    15:00 +23°C° 0 mm 4 mps 755 mmHg 47%
    16:00 +24°C° 0 mm 3 mps 755 mmHg 47%
    17:00 +21°C° 0 mm 2 mps 755 mmHg 53%
    18:00 +19°C° 0 mm 2 mps 755 mmHg 60%
    19:00 +19°C° 0 mm 1 mps 755 mmHg 66%
    20:00 +18°C° 0 mm 1 mps 756 mmHg 66%
    21:00 +18°C° 0 mm 1 mps 756 mmHg 66%
    22:00 +16°C° 0 mm 1 mps 757 mmHg 67%
    23:00 +16°C° 0 mm 1 mps 757 mmHg 65%

    4 June, Thursday

    Time Temperature Precipitation Wind Pressure Humidity
    00:00 +16°C° 0 mm 2 mps 757 mmHg 63%
    01:00 +16°C° 0 mm 2 mps 757 mmHg 62%
    02:00 +16°C° 0 mm 2 mps 756 mmHg 60%
    03:00 +16°C° 0 mm 3 mps 756 mmHg 58%
    04:00 +16°C° 0 mm 3 mps 756 mmHg 57%
    05:00 +18°C° 0 mm 3 mps 756 mmHg 55%
    06:00 +19°C° 0 mm 3 mps 756 mmHg 53%
    07:00 +21°C° 0 mm 3 mps 756 mmHg 50%
    08:00 +23°C° 0 mm 4 mps 757 mmHg 48%
    09:00 +25°C° 0 mm 4 mps 757 mmHg 45%
    10:00 +27°C° 0 mm 5 mps 757 mmHg 42%
    11:00 +27°C° 0 mm 6 mps 757 mmHg 41%
    12:00 +28°C° 0 mm 7 mps 757 mmHg 39%
    13:00 +28°C° 0 mm 8 mps 757 mmHg 38%
    14:00 +28°C° 0 mm 8 mps 757 mmHg 39%
    15:00 +27°C° 0 mm 8 mps 757 mmHg 40%
    16:00 +27°C° 0 mm 9 mps 757 mmHg 41%
    17:00 +24°C° 0 mm 8 mps 757 mmHg 50%
    18:00 +22°C° 0 mm 7 mps 757 mmHg 58%
    19:00 +20°C° 0 mm 7 mps 757 mmHg 66%
    20:00 +20°C° 0 mm 6 mps 757 mmHg 66%
    21:00 +19°C° 0 mm 6 mps 757 mmHg 65%
    22:00 +17°C° 0 mm 5 mps 758 mmHg 65%
    23:00 +17°C° 0 mm 5 mps 757 mmHg 65%

    5 June, Friday

    Time Temperature Precipitation Wind Pressure Humidity
    00:00 +16°C° 0 mm 5 mps 757 mmHg 65%
    01:00 +16°C° 0 mm 5 mps 757 mmHg 65%
    02:00 +16°C° 0 mm 5 mps 757 mmHg 63%
    03:00 +16°C° 0 mm 5 mps 756 mmHg 62%
    04:00 +16°C° 0 mm 5 mps 756 mmHg 60%
    05:00 +17°C° 0 mm 5 mps 756 mmHg 59%
    06:00 +19°C° 0 mm 4 mps 757 mmHg 57%
    07:00 +21°C° 0 mm 4 mps 757 mmHg 56%
    08:00 +21°C° 0.3 mm 5 mps 757 mmHg 57%
    09:00 +21°C° 0.3 mm 5 mps 756 mmHg 58%
    10:00 +21°C° 0.3 mm 6 mps 756 mmHg 59%
    11:00 +21°C° 0.4 mm 6 mps 756 mmHg 62%
    12:00 +21°C° 0.4 mm 5 mps 755 mmHg 64%
    13:00 +20°C° 0.4 mm 5 mps 755 mmHg 67%
    14:00 +20°C° 1.4 mm 6 mps 755 mmHg 69%
    15:00 +20°C° 1.4 mm 6 mps 754 mmHg 71%
    16:00 +18°C° 1.4 mm 7 mps 754 mmHg 73%
    17:00 +18°C° 0.2 mm 7 mps 754 mmHg 73%
    18:00 +18°C° 0.2 mm 7 mps 754 mmHg 74%
    19:00 +18°C° 0.2 mm 7 mps 754 mmHg 75%
    20:00 +17°C° 1.1 mm 6 mps 754 mmHg 78%
    21:00 +17°C° 1.1 mm 6 mps 754 mmHg 82%
    22:00 +16°C° 1.1 mm 5 mps 754 mmHg 86%
    23:00 +16°C° 0.7 mm 5 mps 754 mmHg 87%

    6 June, Saturday

    Time Temperature Precipitation Wind Pressure Humidity
    00:00 +17°C° 0.7 mm 4 mps 754 mmHg 87%
    01:00 +17°C° 0.7 mm 4 mps 754 mmHg 88%
    02:00 +17°C° 0.6 mm 4 mps 754 mmHg 89%
    03:00 +16°C° 0.6 mm 3 mps 754 mmHg 90%
    04:00 +16°C° 0.6 mm 3 mps 754 mmHg 90%
    05:00 +18°C° 0.4 mm 2 mps 754 mmHg 84%
    06:00 +19°C° 0.4 mm 2 mps 754 mmHg 79%
    07:00 +22°C° 0.4 mm 1 mps 755 mmHg 73%
    08:00 +23°C° 0.2 mm 1 mps 755 mmHg 67%
    09:00 +24°C° 0.2 mm 1 mps 755 mmHg 61%
    10:00 +25°C° 0.2 mm 2 mps 755 mmHg 56%
    11:00 +25°C° 0 mm 3 mps 755 mmHg 55%
    12:00 +25°C° 0 mm 3 mps 755 mmHg 55%
    13:00 +26°C° 0 mm 4 mps 756 mmHg 55%
    14:00 +25°C° 0 mm 4 mps 756 mmHg 56%
    15:00 +25°C° 0 mm 4 mps 756 mmHg 57%
    16:00 +23°C° 0 mm 4 mps 756 mmHg 58%
    17:00 +22°C° 0 mm 3 mps 756 mmHg 65%
    18:00 +20°C° 0 mm 2 mps 756 mmHg 71%
    19:00 +20°C° 0 mm 1 mps 757 mmHg 77%
    20:00 +20°C° 0 mm 1 mps 757 mmHg 79%
    21:00 +19°C° 0 mm 1 mps 757 mmHg 80%
    22:00 +19°C° 0 mm 1 mps 758 mmHg 81%
    23:00 +18°C° 0 mm 1 mps 758 mmHg 82%
    Show more